Location: Antioch Church
(34.9543°N, 88.5145°W)
Time: 17:08:17
(UTC+00:00)

Lacrosse 5 - Pass Details

Date: 11 December 2019
Orbit: 717 x 722 km, 57.0° (Epoch: 10 January)

Event Time Altitude Azimuth Distance (km) Brightness Sun altitude
Rises 01:55:33 0° 241° (WSW) 3,111 5.9 -38.7°
Reaches altitude 10° 01:58:04 10° 249° (WSW) 2,194 5.0 -39.2°
Enters shadow 01:59:22 17° 257° (WSW) 1,759 4.4 -39.5°
